GFSSW_700_rhum_159.txt.gz
RH
30 30 39 39 44 43 40 38 37 36 34 34 36 35 34 29 23 18 18 24 30 50 46 43 52 44 41 54 59 60 86 78 73 67 64 65 66 68 71 73 74 70 60 54 52
22 24 32 41 43 39 37 35 34 33 32 33 34 33 30 22 16 15 21 30 29 28 46 52 58 56 85 97 99 98 86 76 74 74 80 85 89 84 81 74 74 74 72 66 61
43 34 35 46 41 39 36 32 32 30 30 29 28 25 21 17 15 24 29 21 22 32 54 58 66 90 97 86 74 93 97 93 89 88 90 94 92 93 98 98 90 78 79 75 73
50 50 49 46 43 40 35 31 30 29 28 26 24 21 17 14 50 25 21 25 31 44 48 53 73 95 70 63 83 95 89 96 89 94 78 60 87 95 96 83 51 64 79 85 80
34 30 33 37 37 37 32 30 30 30 27 23 20 16 14 14 16 23 28 28 29 26 26 37 41 67 58 77 88 77 97 68 47 56 86 97 96 94 62 38 66 64 71 89 84
20 19 22 23 23 26 28 30 32 29 25 20 15 14 14 20 26 22 23 22 21 23 23 26 30 36 40 59 62 53 46 35 37 78 74 75 84 68 82 77 91 96 81 95 75
20 19 18 18 23 28 34 34 33 28 23 20 18 16 17 25 21 18 18 18 17 19 22 24 27 33 29 31 30 31 50 81 60 60 64 76 72 72 68 87 77 75 93 99 78
19 18 18 18 28 32 33 35 33 27 23 23 21 19 22 21 17 15 13 16 17 19 20 22 27 28 28 30 40 86 85 53 46 56 64 68 83 74 71 76 85 83 80 90 99
20 18 18 17 18 19 25 32 31 27 25 24 25 21 26 19 17 14 17 15 16 17 21 25 26 31 41 45 68 72 50 50 48 54 60 66 70 64 60 55 60 75 75 84 84
23 20 18 17 17 19 24 31 28 28 27 29 27 28 24 18 17 16 17 16 17 21 21 26 26 53 86 70 43 53 55 54 54 51 50 59 56 44 37 39 50 58 67 74 84
27 24 20 18 18 19 24 34 35 32 30 32 27 24 21 20 18 20 18 16 17 33 64 54 52 48 50 58 59 56 54 52 42 46 46 38 32 32 36 48 58 64 71 83 79
27 28 23 19 19 18 24 36 39 35 30 34 30 24 23 21 17 21 19 21 24 54 42 58 40 52 32 55 58 46 40 38 40 36 32 26 28 26 39 58 64 76 93 83 92
28 28 24 21 20 15 17 23 39 36 36 36 31 26 26 23 20 23 22 22 26 54 51 47 41 46 33 50 46 39 33 36 38 38 29 21 21 23 28 44 66 76 76 96 91
30 27 24 21 18 12 15 17 35 35 35 35 32 29 30 25 28 22 26 26 45 50 49 43 45 36 51 49 45 40 38 45 40 37 29 24 26 23 24 30 55 71 79 76 82
26 23 21 14 9 12 14 20 33 35 90 31 32 34 29 27 26 35 28 30 32 55 51 39 48 53 51 48 52 43 47 46 43 38 31 27 23 25 23 27 43 61 68 54 57
22 20 11 7 9 14 20 33 33 36 87 39 37 30 30 39 31 34 33 33 38 42 56 42 50 47 53 47 48 48 48 40 36 33 46 36 30 27 19 43 45 51 58 55 18
19 13 6 7 13 20 34 39 37 47 38 46 38 33 32 44 46 35 47 57 55 54 48 48 46 51 33 43 46 55 46 54 47 47 59 27 29 25 20 39 37 51 47 48 10
15 6 5 7 18 35 51 46 35 38 44 45 40 36 49 48 50 40 45 56 59 56 60 56 38 47 58 52 53 50 51 53 56 50 33 28 27 22 32 21 44 45 32 45 15
8 5 6 15 30 54 52 57 50 52 61 54 46 64 61 44 44 48 63 58 60 49 68 69 58 54 55 60 64 55 56 71 62 46 42 34 27 24 21 30 24 38 33 48 56
6 6 9 24 44 60 62 69 69 74 69 57 57 54 66 62 68 68 63 60 64 53 60 75 74 61 64 58 59 67 57 60 79 83 54 28 23 18 17 19 28 38 41 50 67
6 8 23 40 59 68 73 80 80 80 76 65 58 73 72 88 79 75 54 64 66 82 71 76 93 63 71 65 58 67 82 80 82 73 61 50 26 19 28 30 40 44 52 54 86
16 24 36 62 72 77 85 85 79 84 89 75 63 47 78 87 97 96 82 78 62 79 94 92 92 90 67 62 64 69 72 73 76 58 86 65 47 37 34 35 36 51 62 66 88
54 52 60 80 87 85 92 89 82 92 94 89 76 56 58 79 86 99 98 62 65 76 93 92 94 82 54 67 75 63 65 64 75 85 72 61 48 40 38 41 37 62 78 87 87
81 79 86 91 92 99 98 98 98 94 94 90 79 66 62 70 89 80 100 98 80 84 89 99 94 91 77 60 66 94 84 77 90 86 58 54 52 46 36 37 45 68 76 77 56
96 99 99 97 96 100 100 99 100 100 93 91 84 73 65 96 97 90 91 91 93 96 98 98 96 92 91 96 96 85 87 96 97 92 96 69 67 64 63 54 54 73 76 51 46
100 100 98 98 75 100 99 98 96 100 97 97 89 74 98 100 97 88 94 96 96 90 94 94 96 92 84 74 69 81 72 74 98 90 89 91 86 34 66 60 68 78 72 49 48
99 100 99 98 94 97 99 99 98 97 93 94 97 98 85 90 99 99 96 87 94 99 100 99 99 99 86 66 71 72 52 55 54 58 69 85 66 68 63 60 73 90 76 55 50

GFSSW_700_rhum_162.txt.gz
RH
31 27 22 23 37 39 36 34 30 29 29 28 29 31 32 30 25 20 17 21 20 30 28 38 41 47 43 43 62 66 71 77 72 70 68 68 69 65 62 60 61 68 70 72 69
47 45 43 42 43 41 39 36 29 27 27 28 27 27 25 22 20 18 24 24 23 22 26 37 45 43 46 98 93 86 92 82 77 80 72 68 55 36 47 44 24 19 28 40 70
35 30 28 33 36 36 36 34 29 26 27 27 25 22 20 18 16 26 29 22 20 22 29 39 44 44 43 49 53 83 72 77 52 47 31 25 19 28 25 22 25 41 42 35 40
20 19 18 18 17 18 20 24 25 27 28 26 23 19 16 14 40 35 21 23 22 27 35 34 30 30 50 39 58 43 35 32 20 22 23 25 30 22 26 18 30 43 50 41 45
18 18 17 16 16 21 25 30 31 31 27 23 19 18 16 16 21 25 25 25 24 22 21 16 18 23 41 30 42 45 37 25 23 30 39 54 66 70 48 43 53 66 71 72 63
18 18 17 16 16 16 20 25 30 30 26 23 24 20 17 22 28 21 20 18 14 13 12 14 15 17 20 23 32 28 22 26 46 56 60 58 57 46 55 72 69 67 60 50 53
19 18 17 16 16 16 16 17 21 24 23 23 24 21 18 31 17 16 14 12 12 12 12 13 16 19 18 20 20 24 36 52 47 44 44 53 44 54 67 63 60 61 56 62 57
22 22 19 17 16 16 16 16 20 24 25 25 26 21 21 18 16 15 12 13 12 12 12 16 18 19 22 21 37 63 75 55 40 40 45 53 52 43 46 40 36 37 43 48 64
23 21 23 19 17 16 16 17 21 27 30 32 30 23 25 19 16 14 14 13 12 12 15 17 16 25 37 37 50 66 52 46 46 37 45 45 48 31 26 30 37 49 57 62 62
24 22 24 22 18 17 15 16 18 25 33 34 33 32 24 18 18 16 16 15 14 16 23 23 27 68 78 66 49 45 49 46 48 36 36 39 38 20 26 35 47 57 75 67 66
25 27 26 23 19 17 11 12 16 22 30 34 31 26 20 21 20 19 17 16 16 33 61 50 44 56 48 42 39 46 53 47 40 34 33 32 31 23 25 40 60 56 66 68 43
26 28 26 22 17 12 8 11 13 25 31 35 30 25 22 25 22 23 19 21 25 48 50 51 43 46 44 28 42 50 43 40 34 34 33 24 22 22 23 31 42 46 34 37 37
26 26 23 18 9 6 7 10 19 29 33 36 31 25 26 30 28 24 22 22 22 26 50 48 29 42 37 30 47 42 41 36 38 40 36 29 26 21 18 29 36 52 43 26 17
27 23 20 11 7 5 8 14 26 32 38 38 30 33 33 31 40 33 28 25 27 36 43 31 39 36 35 47 45 44 40 40 44 43 42 36 40 30 23 22 35 47 49 42 19
26 20 18 6 4 7 14 24 35 34 83 34 36 38 33 36 40 42 28 26 25 33 44 36 46 46 49 50 48 44 39 41 38 43 39 36 34 35 29 23 35 45 49 48 30
23 18 13 5 5 10 20 37 37 40 86 41 41 38 44 53 52 46 31 28 32 39 39 38 40 41 37 38 33 37 44 49 44 42 55 35 40 36 28 26 26 39 30 39 34
19 16 9 4 5 15 30 46 43 48 42 53 53 52 48 49 62 57 46 52 55 54 50 44 45 48 47 38 40 49 54 72 72 69 82 36 33 29 26 26 29 23 45 39 35
13 12 5 5 9 24 45 46 40 48 51 58 63 57 63 56 53 48 41 52 54 57 56 60 48 42 46 46 53 45 54 59 79 80 63 48 37 27 25 26 27 34 41 30 16
10 6 5 6 16 32 50 60 57 62 76 74 66 57 59 57 58 55 53 57 56 59 55 61 61 53 49 59 58 52 48 56 70 68 66 46 38 31 23 24 25 25 23 18 17
6 5 9 16 24 42 61 71 71 79 79 77 68 66 63 62 67 74 57 56 56 48 55 62 71 44 58 58 49 53 48 62 65 97 84 40 44 36 29 29 32 32 26 20 30
7 12 24 39 41 56 68 80 84 78 82 85 82 76 71 70 76 74 51 51 64 68 70 66 86 62 62 65 63 64 76 78 82 76 86 80 40 32 33 36 36 34 36 39 42
18 44 58 65 65 77 77 89 89 93 90 88 85 80 70 65 83 84 68 76 73 68 86 91 93 96 70 43 66 65 62 64 84 73 71 76 69 43 43 41 56 50 49 51 48
59 76 78 80 83 88 89 92 86 87 98 95 92 86 84 81 83 77 76 65 68 78 84 92 94 89 64 62 72 77 72 63 66 78 90 90 65 50 48 54 52 70 74 60 54
92 92 85 81 95 94 98 96 99 92 93 94 96 90 87 81 84 80 75 84 81 76 76 94 91 87 81 57 62 73 72 82 88 91 80 82 73 64 55 59 56 58 62 60 53
100 98 87 86 95 100 100 90 98 99 94 97 94 90 91 93 90 76 85 91 91 98 99 99 98 94 96 92 88 86 80 79 88 89 100 74 80 58 50 56 74 70 59 56 56
100 94 85 100 100 100 100 97 100 99 99 100 90 97 98 96 94 88 87 86 95 82 72 82 100 100 96 79 74 78 72 70 74 78 91 89 91 62 61 68 74 63 71 85 74
100 99 99 98 100 100 99 99 99 99 98 94 99 97 93 90 100 90 81 77 72 79 95 97 98 97 93 80 80 77 55 58 53 50 63 51 51 56 57 69 65 84 78 74 66

GFSSW_700_rhum_165.txt.gz
RH
41 38 34 34 37 39 39 37 35 33 26 24 26 27 26 26 25 24 20 22 22 21 18 20 31 37 39 38 44 48 65 55 66 78 74 70 64 49 58 60 44 34 34 42 47
22 21 20 19 17 17 18 20 23 25 25 26 27 26 24 22 21 20 21 23 18 20 18 21 37 39 35 43 51 48 50 45 63 69 65 54 46 20 12 9 11 9 10 13 24
19 18 18 17 16 16 17 20 23 26 29 29 26 22 19 18 17 24 28 18 20 16 20 24 28 25 24 31 42 43 31 34 29 51 35 12 11 15 21 12 14 17 11 7 8
18 17 17 16 16 16 15 15 19 26 29 27 24 22 22 18 25 26 22 22 18 18 18 22 19 16 14 18 21 22 31 21 13 13 18 27 18 14 12 18 25 22 17 16 19
20 18 17 16 16 15 15 14 14 15 17 20 22 22 21 18 22 25 19 18 18 15 13 12 12 11 13 15 19 24 13 15 25 40 37 32 25 21 14 24 10 9 15 24 31
22 21 19 17 15 15 15 14 14 14 18 23 22 24 20 20 29 17 16 15 13 11 10 10 11 12 15 19 21 17 19 39 41 41 39 41 31 27 20 16 26 30 34 39 44
23 21 19 20 17 15 14 14 14 15 19 27 30 27 21 24 16 15 13 11 11 10 10 10 12 14 12 17 18 32 38 44 41 39 38 36 19 17 8 20 28 36 39 41 47
23 22 21 22 20 16 14 14 13 14 20 26 30 28 23 17 16 15 13 12 11 11 11 12 12 13 17 22 48 54 52 46 34 20 23 37 32 9 11 22 28 38 33 23 22
22 22 23 24 21 17 14 12 10 11 18 22 31 27 24 18 17 17 16 13 13 12 13 18 16 29 41 33 48 59 57 37 18 18 35 37 36 17 9 24 32 31 24 25 16
20 23 24 24 19 15 12 7 8 11 19 28 33 32 25 19 21 22 18 16 16 15 22 20 29 49 53 49 36 30 30 28 32 28 36 37 32 18 11 23 25 27 27 27 24
20 25 22 23 16 9 6 6 9 16 21 27 29 26 19 21 25 28 19 21 20 23 26 34 36 52 60 49 40 26 33 38 36 34 38 34 34 16 19 22 25 32 36 32 28
21 26 22 22 13 7 4 7 11 20 29 32 29 23 21 24 29 30 30 24 20 20 43 47 36 50 46 45 38 28 42 42 41 38 36 30 26 17 19 22 30 34 35 38 37
21 28 21 20 13 5 4 9 13 24 30 32 28 29 28 32 36 37 37 31 24 25 37 47 36 42 35 36 30 33 44 45 43 39 31 28 33 26 24 26 31 41 50 44 41
24 29 21 19 10 4 5 11 16 27 34 30 31 37 37 39 44 46 42 31 28 30 41 30 34 37 40 35 43 49 40 34 29 34 41 39 55 38 29 33 35 43 39 44 40
28 31 20 18 6 4 7 14 24 33 54 34 41 42 52 51 51 45 39 32 28 28 38 33 39 43 39 38 37 38 29 34 44 45 50 32 46 36 35 30 32 36 41 45 38
33 30 16 14 4 4 6 18 31 37 70 44 48 57 59 55 49 46 44 35 37 40 41 40 44 46 38 42 36 37 43 46 36 49 68 46 50 40 34 30 26 27 45 43 39
34 21 12 8 4 4 9 26 40 38 45 54 61 68 65 52 55 53 47 41 46 53 52 44 40 40 45 49 41 35 47 62 68 69 75 43 48 28 26 28 36 43 47 45 39
27 12 8 4 5 9 17 31 46 53 59 68 69 66 55 56 58 53 54 49 51 56 60 54 41 42 45 42 47 48 54 58 85 84 65 54 62 28 32 30 30 29 32 31 28
14 7 5 6 12 21 32 54 55 65 75 72 67 63 59 59 66 65 60 56 59 56 50 50 54 49 45 49 52 53 46 48 60 62 82 59 44 36 38 28 32 38 37 36 36
8 6 7 14 28 47 46 62 70 82 77 76 76 72 70 72 71 69 63 58 57 55 48 54 55 40 41 40 45 56 55 58 65 93 97 62 44 41 35 32 36 48 51 50 48
6 7 15 31 54 58 66 74 79 84 82 80 81 83 80 76 70 72 66 57 60 60 62 63 69 53 61 55 49 60 67 68 72 77 95 93 52 38 38 43 41 51 59 62 64
8 14 33 62 70 71 77 79 86 78 78 79 83 85 87 83 80 77 71 65 63 76 81 82 80 100 78 41 64 70 75 75 93 77 85 88 73 49 51 44 49 57 67 62 63
11 23 48 76 80 83 86 87 85 84 90 85 83 83 88 90 87 77 77 71 68 68 80 73 89 94 59 62 63 74 73 74 70 74 81 92 64 44 54 51 60 68 61 70 72
24 48 67 87 83 86 97 91 79 82 86 86 85 89 92 85 87 82 78 75 72 79 86 98 94 88 78 60 68 69 75 72 83 96 83 88 84 75 59 62 62 55 72 69 66
21 50 73 90 88 90 95 97 96 97 90 95 86 88 94 91 86 86 80 77 80 85 97 99 98 98 96 96 98 98 91 83 77 79 97 73 79 61 69 59 57 57 70 69 67
46 80 98 100 92 94 98 98 98 99 98 94 92 91 93 87 90 86 87 93 95 87 85 90 94 94 99 88 86 85 70 64 65 68 73 66 68 67 54 45 48 71 69 72 73
86 82 99 100 94 94 94 96 98 97 96 99 95 94 93 96 95 87 87 90 94 96 100 99 96 93 91 80 94 90 50 54 56 54 55 67 58 51 49 38 40 52 65 67 67

GFSSW_700_rhum_168.txt.gz
RH
21 20 20 20 19 18 18 17 16 16 19 22 24 27 26 24 24 23 22 22 23 22 20 22 27 35 37 35 31 32 46 41 56 55 50 39 45 60 53 47 39 34 29 24 15
18 17 17 16 16 16 16 16 16 17 21 25 27 25 22 20 20 19 20 22 22 18 18 21 26 38 40 34 34 38 38 46 51 52 45 45 47 34 17 13 12 12 12 9 7
17 16 16 16 16 15 15 15 14 14 14 14 17 20 22 22 19 21 32 21 19 16 16 21 28 33 28 28 36 39 30 42 49 59 54 53 20 15 15 12 10 7 6 4 3
22 21 19 18 15 14 14 14 14 14 14 14 16 19 21 21 23 27 23 20 14 14 17 18 18 15 15 23 24 28 21 24 16 19 16 16 19 14 10 14 10 9 8 6 6
22 22 19 17 18 15 14 14 14 13 14 16 22 27 26 21 23 26 17 15 13 11 10 10 10 11 12 14 16 14 20 16 24 34 30 20 14 11 18 12 6 10 12 8 7
20 22 19 17 19 18 15 14 14 12 13 18 22 27 26 22 29 15 13 12 11 10 10 9 10 11 12 14 14 16 14 30 40 36 25 16 9 15 15 7 5 7 5 6 12
18 22 19 18 19 19 15 14 12 10 11 16 17 28 24 23 15 14 14 12 11 11 10 10 10 12 13 16 17 24 37 43 39 32 16 20 15 17 12 6 7 10 11 18 22
18 19 21 20 21 18 14 11 8 8 11 17 22 28 22 16 17 18 19 14 13 12 11 11 12 12 16 20 33 48 32 35 35 14 19 25 14 14 14 9 8 21 25 25 24
18 18 22 20 21 16 11 6 6 7 14 20 26 26 22 19 21 26 24 15 17 14 16 18 17 26 37 31 40 29 30 23 14 17 25 30 20 14 13 12 12 21 23 24 26
18 18 22 20 20 14 8 5 6 9 15 25 32 32 22 21 26 32 22 25 21 18 24 26 23 35 44 37 36 37 32 21 21 22 25 20 17 12 10 13 16 21 22 26 34
17 18 20 22 20 15 6 4 9 16 19 24 28 28 20 22 28 35 24 36 24 20 21 21 29 37 45 46 48 46 36 28 23 25 31 19 16 10 12 15 18 24 22 29 43
20 18 20 23 20 16 5 4 8 19 27 30 25 23 22 30 37 37 41 36 27 21 21 30 30 38 41 42 39 39 30 26 26 28 24 20 17 16 18 20 24 25 26 30 42
21 19 22 25 20 13 5 4 6 19 29 29 31 33 35 44 46 46 42 37 27 25 27 29 32 38 41 40 38 32 31 32 36 28 20 31 24 22 20 26 29 27 34 46 47
23 21 25 26 17 13 4 3 7 21 33 30 36 39 49 56 48 46 41 37 31 28 30 31 33 37 40 39 36 34 29 29 30 34 46 40 61 25 23 26 31 29 43 47 44
25 26 29 23 17 6 4 4 10 25 44 35 41 45 58 56 50 47 44 41 32 36 37 37 36 37 35 34 39 37 30 30 33 43 53 44 55 36 31 33 30 37 46 44 46
30 31 31 17 12 4 4 8 18 33 52 42 51 62 62 56 48 49 48 49 46 41 41 38 41 42 37 38 47 46 35 28 36 44 74 54 54 40 34 33 31 41 45 44 37
32 30 26 12 6 4 7 17 31 38 39 50 62 64 65 54 54 53 55 53 49 45 46 45 38 34 33 38 44 49 35 52 49 69 72 48 47 33 32 34 36 35 37 42 42
33 27 16 8 5 9 16 29 43 41 48 58 64 63 59 58 60 61 62 59 50 53 56 56 41 38 41 44 41 41 45 40 58 86 59 45 56 33 31 32 36 35 49 50 51
33 24 12 5 6 17 35 40 47 54 64 65 64 61 61 64 64 68 64 63 52 51 53 49 45 43 44 43 47 50 46 47 54 59 86 63 53 32 35 36 36 31 32 39 56
33 22 8 6 11 29 53 52 58 64 74 72 70 66 70 74 70 68 68 60 57 56 57 53 55 47 42 43 46 46 51 59 62 84 87 67 59 41 36 37 33 37 45 57 64
33 17 7 8 22 39 60 65 67 75 80 69 72 75 77 77 73 74 70 66 63 57 61 66 70 53 54 52 49 53 62 68 67 61 96 98 60 41 45 42 44 42 55 66 68
31 13 10 16 23 64 66 69 72 78 73 78 78 75 80 80 80 80 70 70 69 68 71 79 80 85 55 65 72 73 69 75 75 79 94 97 69 48 49 42 46 54 67 58 56
25 10 8 14 39 69 76 78 81 82 75 75 81 80 79 81 76 76 75 72 76 74 67 69 82 85 60 61 51 63 59 66 76 84 94 94 64 40 46 40 54 69 53 55 55
16 11 12 25 50 65 79 82 89 79 79 80 86 82 83 82 81 79 75 80 79 82 83 86 94 89 76 63 70 78 78 76 74 87 78 82 75 58 54 50 64 65 44 44 54
14 11 10 26 53 76 78 79 86 87 91 89 87 86 88 91 83 82 79 76 81 84 93 100 97 96 93 92 96 98 91 85 87 80 100 63 79 56 55 68 65 52 44 52 64
17 11 12 26 47 90 98 91 90 91 93 91 87 97 90 81 86 92 90 91 82 82 90 92 98 100 100 88 84 92 78 75 75 81 93 72 66 50 63 60 54 49 40 45 65
19 15 26 52 58 86 79 81 83 99 99 98 93 99 94 90 85 82 88 86 98 97 100 100 99 97 93 80 91 88 47 48 48 57 59 60 52 54 58 58 53 45 39 40 77

GFSSW_700_rhum_174.txt.gz
RH
17 17 16 15 14 14 12 13 13 13 13 13 13 13 13 14 15 17 19 19 20 21 21 22 26 27 35 36 36 44 48 41 42 42 43 42 51 58 55 54 49 45 43 43 43
19 19 18 16 14 14 14 12 12 12 12 12 12 12 14 17 16 17 19 24 25 23 20 20 21 27 34 38 42 40 37 32 36 37 44 40 42 41 42 42 37 29 19 13 9
19 19 20 16 14 13 14 13 12 12 12 12 12 14 17 21 20 24 27 22 22 20 18 18 22 28 35 40 38 34 31 34 34 32 35 35 31 29 25 13 10 8 8 8 8
19 18 19 18 15 15 16 15 13 13 11 10 12 12 14 20 24 25 25 21 15 13 14 16 21 27 33 32 28 24 24 29 31 31 26 21 14 10 11 12 10 8 7 6 5
19 18 18 20 18 17 16 14 12 10 9 8 12 14 17 23 27 27 15 13 13 12 11 11 12 14 13 13 16 21 20 24 20 20 18 13 18 14 10 8 10 10 8 7 6
21 19 18 18 19 18 17 13 9 7 7 9 13 16 21 25 25 14 16 19 15 13 11 10 10 10 11 12 13 17 18 19 16 14 22 22 17 9 13 13 13 11 10 8 6
21 19 17 17 18 18 18 14 8 6 7 12 14 20 23 23 15 21 30 24 15 14 13 12 11 11 11 13 13 14 14 16 21 28 29 19 10 14 14 15 16 14 11 10 8
21 18 17 16 17 19 18 16 8 6 8 15 17 24 21 17 20 31 29 19 26 28 18 14 13 13 13 13 15 18 25 25 30 27 14 11 12 15 15 14 13 12 11 10 11
19 19 19 18 18 19 19 17 9 7 10 16 22 27 20 20 25 33 29 27 36 29 20 18 18 19 24 26 25 26 21 20 20 15 15 14 13 16 16 13 11 11 10 10 13
21 24 23 21 20 20 20 18 12 9 12 16 27 27 25 22 27 38 28 36 36 29 24 23 22 24 28 32 27 26 26 24 21 20 20 16 14 16 15 15 13 12 12 12 13
26 26 25 22 21 21 22 17 11 11 10 17 26 30 28 22 29 41 33 40 36 30 22 22 26 29 29 32 28 28 27 28 24 22 22 20 16 16 17 17 16 15 14 14 15
27 27 27 25 23 23 23 16 9 9 12 21 27 31 23 34 44 41 42 38 35 28 26 27 29 30 30 29 32 30 32 30 27 26 26 23 19 18 17 19 19 18 17 17 19
28 28 28 27 26 25 21 16 8 5 16 25 26 23 32 46 48 44 41 40 36 31 29 33 34 30 29 31 32 33 34 33 33 33 30 27 21 20 18 18 20 19 20 22 24
31 29 29 29 29 28 22 13 5 7 22 28 32 36 43 53 47 49 43 42 40 36 38 34 32 33 33 32 35 34 34 37 40 42 36 35 37 21 22 23 23 22 23 24 28
34 32 30 30 32 32 19 9 5 11 54 30 36 36 43 54 54 50 48 46 46 46 42 37 37 36 37 38 37 38 37 41 43 41 39 44 45 22 24 24 24 24 22 24 33
34 33 30 31 34 32 16 6 7 24 48 32 36 41 50 56 54 52 52 51 50 45 44 41 40 41 41 39 37 39 40 37 36 39 61 40 43 23 24 24 25 25 26 32 35
36 34 31 31 35 31 14 6 17 32 22 35 40 45 57 56 53 52 52 53 53 50 41 44 46 44 40 37 41 40 36 48 49 57 64 49 50 25 27 27 28 30 31 33 36
39 36 31 29 36 36 11 12 31 15 29 35 40 49 58 56 53 53 51 53 54 53 46 46 44 42 39 41 43 41 39 40 51 72 56 49 53 28 26 31 32 35 36 37 41
43 38 32 28 35 38 14 20 10 17 26 32 47 57 58 57 55 56 53 54 57 49 47 48 47 46 44 46 46 44 44 43 44 62 78 52 42 28 32 34 32 33 35 36 42
46 40 31 27 34 39 17 13 16 25 35 43 48 51 54 55 57 54 54 52 53 52 53 52 50 51 51 52 48 49 52 54 53 63 72 57 52 31 31 32 34 36 39 45 40
47 38 31 27 34 40 22 16 13 16 38 54 58 58 59 58 60 60 54 53 56 58 59 60 60 54 50 49 48 52 56 58 55 59 84 93 55 34 37 38 39 42 43 47 45
50 49 36 30 36 38 30 17 14 22 48 61 66 63 62 60 58 60 60 54 57 64 66 66 68 67 60 59 60 58 57 58 57 64 70 95 65 44 46 48 43 39 57 45 49
66 68 41 34 38 36 30 19 17 29 53 68 72 70 69 66 62 65 64 60 66 71 70 66 64 62 62 59 58 66 55 64 64 67 80 82 55 40 45 48 47 56 47 45 50
83 100 71 38 36 35 30 21 28 36 61 73 73 72 67 66 70 67 68 68 73 78 77 77 74 68 64 56 68 70 70 67 63 69 72 74 60 51 50 53 55 53 44 44 54
96 98 66 40 32 36 35 28 24 26 63 74 82 79 68 73 77 74 77 78 80 86 87 90 83 82 67 73 82 80 73 77 94 89 90 58 78 34 39 56 52 48 47 56 63
94 99 88 52 41 41 38 30 20 32 66 66 65 71 74 78 76 71 77 75 75 81 85 94 98 96 90 69 78 83 51 53 57 61 78 54 56 35 44 47 49 49 53 66 72
90 93 97 71 51 42 31 25 20 34 63 74 78 80 79 79 94 95 88 86 88 80 89 96 100 96 91 79 84 67 32 35 34 38 40 46 38 45 48 51 55 52 57 77 76

GFSSW_700_rhum_177.txt.gz
RH
20 19 17 16 14 13 13 13 12 12 12 11 12 12 12 13 14 16 16 18 21 23 22 23 25 28 30 35 40 44 47 44 42 40 44 48 51 57 54 52 49 50 50 50 51
20 19 20 18 15 13 13 13 12 12 12 12 11 12 13 15 16 18 21 23 22 21 21 21 22 26 32 38 44 43 40 38 36 33 36 41 49 50 49 49 45 40 36 32 26
21 19 19 19 17 15 15 14 13 12 12 11 11 11 12 12 15 22 25 22 22 20 18 18 21 27 31 38 42 41 37 34 34 33 36 40 41 42 40 38 28 18 11 9 8
21 19 18 18 18 17 16 14 12 11 10 9 9 11 13 15 20 25 27 20 14 13 13 14 17 24 29 36 36 33 31 28 34 35 32 30 29 24 19 16 13 11 10 8 7
23 21 18 17 17 18 17 15 11 8 7 7 8 11 14 19 23 26 16 14 14 13 12 11 12 16 18 18 18 21 20 24 28 27 19 19 15 14 16 12 9 8 9 9 8
24 21 19 17 17 18 18 16 12 7 6 7 9 10 18 22 27 15 19 24 22 17 13 12 11 11 11 12 14 16 16 17 18 17 14 13 16 17 11 10 10 11 11 10 10
26 22 19 16 16 17 18 18 15 8 6 10 12 15 19 22 16 22 30 25 19 19 19 16 13 12 12 13 13 14 14 14 14 15 20 22 19 12 11 13 12 12 11 10 9
27 23 19 18 18 18 18 19 18 11 8 13 14 20 22 17 19 30 29 22 29 33 26 19 15 14 13 13 14 15 19 25 26 27 26 17 13 13 14 13 13 12 12 10 10
27 25 24 24 22 20 20 19 18 13 10 14 16 24 22 18 22 30 32 27 35 33 26 21 19 19 22 24 24 26 22 23 19 18 15 13 14 15 16 16 14 12 11 11 11
27 26 28 28 24 22 20 20 19 14 12 13 21 24 24 21 25 29 35 31 36 33 28 24 24 22 25 27 26 25 24 24 21 22 18 16 15 16 17 17 14 14 13 11 11
31 29 29 30 28 24 22 23 17 14 13 10 19 25 34 24 25 35 37 39 36 33 26 24 26 26 29 30 29 25 25 24 24 24 21 19 17 18 17 16 16 15 14 13 14
35 32 31 31 30 27 25 25 16 14 12 12 19 29 34 23 35 44 41 40 36 33 28 28 28 30 29 28 29 30 29 28 27 27 27 22 19 19 17 15 16 16 15 16 16
37 36 33 32 32 30 29 24 16 8 14 16 25 32 26 32 49 45 44 39 38 35 32 32 35 34 31 31 31 31 32 32 32 32 32 28 22 18 18 17 18 17 18 19 18
38 39 36 34 32 33 34 26 15 7 19 23 26 26 27 47 50 44 46 42 41 38 38 38 31 32 34 34 35 33 34 35 37 40 39 35 34 21 19 19 21 20 21 21 20
43 39 39 37 33 34 36 28 12 9 44 27 31 31 35 48 51 46 45 46 44 44 42 36 36 36 37 38 38 37 35 38 40 41 39 36 40 23 22 21 21 22 22 22 22
45 42 39 38 35 34 38 28 11 20 49 26 31 35 38 44 53 53 50 48 47 44 41 42 39 38 41 41 39 37 40 36 36 36 50 36 43 22 22 22 22 24 24 25 25
48 44 41 38 35 33 39 25 17 32 13 28 31 34 40 50 53 54 53 48 46 43 42 40 41 43 45 42 39 42 37 47 52 51 58 47 52 24 24 23 25 25 26 27 28
54 49 43 42 38 32 41 26 23 10 17 27 33 39 47 55 55 53 53 51 46 46 48 43 44 41 40 40 42 44 39 41 52 56 46 44 48 28 25 23 24 26 28 28 31
67 57 48 44 39 30 40 32 15 10 9 20 36 45 52 57 56 54 53 52 50 49 43 43 46 44 42 42 45 44 42 40 42 62 68 46 36 26 28 27 27 29 30 32 34
91 66 57 47 40 31 42 40 23 13 11 22 32 44 52 54 56 55 52 47 50 49 48 47 47 50 49 51 50 47 49 50 48 62 60 48 43 26 26 28 33 34 34 36 41
99 76 61 53 46 39 41 40 37 24 18 25 42 49 54 53 55 57 52 48 49 49 51 53 52 53 52 48 45 51 53 51 50 52 64 68 39 30 29 33 36 36 39 40 48
98 94 75 71 67 42 34 32 36 31 18 16 35 56 61 60 59 60 55 52 52 57 57 56 63 63 61 58 58 56 54 56 54 58 68 81 53 38 37 35 40 44 47 50 59
98 98 96 87 74 49 37 31 36 37 28 25 43 60 63 64 63 61 60 58 58 60 66 60 60 59 65 65 65 64 55 61 61 59 68 68 46 37 39 46 53 59 63 52 44
97 98 98 91 76 58 47 37 36 37 33 32 45 64 68 68 65 60 63 62 64 68 69 70 65 61 60 56 59 60 57 60 60 66 64 62 48 42 46 52 56 45 40 41 45
98 97 84 94 84 72 54 43 38 40 35 35 61 67 65 70 63 68 66 70 70 72 72 76 71 68 64 73 79 75 66 74 81 76 80 43 60 29 38 48 43 41 42 43 48
82 97 100 89 86 84 66 43 41 38 36 33 38 53 72 72 62 63 67 75 75 79 80 80 80 78 62 68 72 65 45 51 69 66 72 47 43 32 38 42 43 41 45 48 53
94 97 98 96 91 90 43 38 40 45 44 35 43 55 72 74 80 79 84 80 77 79 80 80 84 92 88 71 75 60 33 34 34 35 36 40 33 38 42 44 46 48 53 55 60